Weather in Kalininskiy

Russia / Republic of North Ossetia — Alania     43°43′31″N   44°41′36″E
temp.,
°C
wind,
m/s
gust,
m/s
humid.,
%
clouds,
%
prec.,
mm/h
press.,
hPa
HPBL,
m
8 may, sat
sat800:00+13s11655 0.0 101811
03:00+11w22745 0.0 101810
06:00+13s01764 0.0 101832
09:00+19e3556100 0.0 1016591
12:00+23e674243 0.0 10141330
15:00+23e5642100 0.0 10131520
18:00+19e5955100 0.0 1013254
21:00+13e377421 0.0 1013150
9 may, sun
sun900:00+11ese238568 0.0 101238
03:00+10e229287 0.0 101021
06:00+12e1186100 0.0 100868
09:00+18nw3366100 0.0 1008509
12:00+23nw44546 0.0 10071225
15:00+17nw101475100 0.0 1009867
18:00+9wnw111987100 1.6 1015850
21:00+7wnw91789100 4.4 1020927
10 may, mon
mon1000:00+8w71288100 2.8 1021996
03:00+8w61381100 2.9 1022755
06:00+8wsw51180100 0.0 1022708
09:00+13w6951100 0.1 10211999
12:00+15wnw6840100 0.0 10202354
15:00+16wnw564084 0.0 10192251
18:00+13wnw585872 0.1 1020372
21:00+8wsw487598 0.1 1021199
11 may, tue
tue1100:00+8w588562 0.1 1021216
03:00+7sw2281100 0.1 102025
06:00+9ene1274100 0.0 1021163
09:00+12e456098 0.0 10201022
12:00+14e355372 0.0 10191569
15:00+15ne3356100 0.0 1018855
18:00+16ese24615 0.0 1018162
21:00+10ese377685 0.0 1019111
12 may, wed
wed1200:00+8ese35800 0.0 101971
03:00+7e22874 0.0 101827
06:00+8e37875 0.0 1019220
09:00+15e57640 0.0 1018982
12:00+19e565238 0.0 10161499
15:00+21e444934 0.0 10151644
18:00+19ese23640 0.0 101692
21:00+13se45770 0.0 101667